| time (UTC) | temp C | wind direction | speed KPH | gust KPH | rain 1hr cm | rain 24hr cm | rain mn cm | humidity % | barometer mb |
| 20260505031517 | 11 | 270 | 17.7 | 32.2 | 0.00 | 0.00 | 0.00 | 45 | 1003.3 |
| 20260505030517 | 12 | 293 | 16.1 | 33.8 | 0.00 | 0.00 | 0.00 | 44 | 1003.1 |
| 20260505025517 | 12 | 293 | 14.5 | 25.7 | 0.00 | 0.00 | 0.00 | 44 | 1002.9 |
| 20260505024517 | 12 | 293 | 16.1 | 29.0 | 0.00 | 0.00 | 0.00 | 44 | 1002.7 |
| 20260505023518 | 12 | 293 | 11.3 | 19.3 | 0.00 | 0.00 | 0.00 | 44 | 1002.4 |
| 20260505022517 | 12 | 293 | 17.7 | 29.0 | 0.00 | 0.00 | 0.00 | 43 | 1002.2 |
| 20260505020537 | 13 | 293 | 11.3 | 25.7 | 0.00 | 0.00 | 0.00 | 42 | 1001.5 |
| 20260505015517 | 13 | 270 | 12.9 | 24.1 | 0.00 | 0.00 | 0.00 | 42 | 1001.2 |
| 20260505014516 | 13 | 293 | 14.5 | 25.7 | 0.00 | 0.00 | 0.00 | 41 | 1000.9 |
| 20260505013517 | 13 | 270 | 9.7 | 17.7 | 0.00 | 0.00 | 0.00 | 41 | 1000.8 |
| 20260505012517 | 13 | 293 | 9.7 | 20.9 | 0.00 | 0.00 | 0.00 | 40 | 1000.5 |
| 20260505011517 | 14 | 315 | 11.3 | 22.5 | 0.00 | 0.00 | 0.00 | 40 | 1000.2 |
| 20260505010516 | 14 | 293 | 14.5 | 24.1 | 0.00 | 0.00 | 0.00 | 39 | 1000.4 |
| 20260505005537 | 14 | 293 | 11.3 | 33.8 | 0.00 | 0.00 | 0.00 | 38 | 1000.4 |
| 20260505004516 | 15 | 270 | 11.3 | 25.7 | 0.00 | 0.00 | 0.00 | 37 | 1000.5 |
| 20260505003536 | 15 | 293 | 16.1 | 25.7 | 0.00 | 0.00 | 0.00 | 34 | 1000.4 |
| 20260505002516 | 15 | 270 | 14.5 | 29.0 | 0.00 | 0.00 | 0.00 | 34 | 1000.0 |
| 20260505001536 | 15 | 270 | 14.5 | 32.2 | 0.00 | 0.00 | 0.00 | 34 | 999.9 |
| 20260505000517 | 16 | 270 | 12.9 | 27.4 | 0.00 | 0.00 | 0.00 | 33 | 999.8 |
| 20260504235557 | 16 | 248 | 17.7 | 32.2 | 0.00 | 0.00 | 0.00 | 33 | 999.6 |
| 20260504234516 | 16 | 270 | 14.5 | 38.6 | 0.00 | 0.00 | 0.00 | 32 | 999.6 |
| 20260504233516 | 16 | 270 | 17.7 | 30.6 | 0.00 | 0.00 | 0.00 | 32 | 999.5 |
| 20260504232536 | 16 | 248 | 17.7 | 41.8 | 0.00 | 0.00 | 0.00 | 34 | 999.3 |
| 20260504231558 | 17 | 270 | 12.9 | 24.1 | 0.00 | 0.00 | 0.00 | 34 | 999.4 |
| 20260504230516 | 17 | 270 | 12.9 | 27.4 | 0.00 | 0.00 | 0.00 | 35 | 999.3 |
| 20260504225516 | 17 | 270 | 14.5 | 29.0 | 0.00 | 0.00 | 0.00 | 34 | 999.2 |
| 20260504224516 | 17 | 270 | 16.1 | 29.0 | 0.00 | 0.00 | 0.00 | 34 | 999.1 |
| 20260504223516 | 17 | 270 | 12.9 | 25.7 | 0.00 | 0.00 | 0.00 | 33 | 999.1 |
| 20260504222516 | 17 | 270 | 20.9 | 37.0 | 0.00 | 0.00 | 0.00 | 32 | 999.1 |
| 20260504221516 | 18 | 270 | 14.5 | 30.6 | 0.00 | 0.00 | 0.00 | 32 | 999.0 |
| 20260504220516 | 18 | 270 | 22.5 | 43.5 | 0.00 | 0.00 | 0.00 | 32 | 998.8 |
| 20260504215516 | 19 | 293 | 17.7 | 32.2 | 0.00 | 0.00 | 0.00 | 31 | 998.6 |
| 20260504214536 | 20 | 293 | 19.3 | 33.8 | 0.00 | 0.00 | 0.00 | 30 | 998.5 |
| 20260504213516 | 20 | 270 | 14.5 | 37.0 | 0.00 | 0.00 | 0.00 | 32 | 998.2 |
| 20260504212516 | 20 | 293 | 17.7 | 35.4 | 0.00 | 0.00 | 0.00 | 34 | 998.0 |
| 20260504211536 | 21 | 293 | 16.1 | 33.8 | 0.00 | 0.00 | 0.00 | 34 | 998.1 |
| 20260504210516 | 21 | 293 | 19.3 | 40.2 | 0.00 | 0.00 | 0.00 | 37 | 997.9 |
| 20260504205516 | 21 | 270 | 16.1 | 40.2 | 0.00 | 0.00 | 0.00 | 34 | 997.9 |
| 20260504204516 | 21 | 315 | 16.1 | 30.6 | 0.00 | 0.00 | 0.00 | 39 | 997.8 |
| 20260504203516 | 21 | 270 | 17.7 | 35.4 | 0.00 | 0.00 | 0.00 | 37 | 997.8 |
| 20260504202516 | 22 | 293 | 19.3 | 40.2 | 0.00 | 0.00 | 0.00 | 36 | 997.7 |
| 20260504201516 | 22 | 293 | 16.1 | 32.2 | 0.00 | 0.00 | 0.00 | 40 | 997.6 |
| 20260504200516 | 22 | 293 | 16.1 | 32.2 | 0.00 | 0.00 | 0.00 | 38 | 997.4 |
| 20260504195516 | 22 | 270 | 20.9 | 40.2 | 0.00 | 0.00 | 0.00 | 37 | 997.5 |
| 20260504194516 | 22 | 270 | 22.5 | 46.7 | 0.00 | 0.00 | 0.00 | 36 | 997.2 |
| 20260504193516 | 23 | 293 | 19.3 | 41.8 | 0.00 | 0.00 | 0.00 | 40 | 997.4 |
| 20260504192516 | 23 | 270 | 17.7 | 35.4 | 0.00 | 0.00 | 0.00 | 39 | 997.4 |
| 20260504191538 | 23 | 248 | 16.1 | 25.7 | 0.00 | 0.00 | 0.00 | 39 | 997.4 |
| 20260504190516 | 22 | 270 | 16.1 | 32.2 | 0.00 | 0.00 | 0.00 | 38 | 997.4 |
| 20260504185516 | 22 | 248 | 19.3 | 41.8 | 0.00 | 0.00 | 0.00 | 37 | 997.3 |
| 20260504184536 | 22 | 270 | 25.7 | 46.7 | 0.00 | 0.00 | 0.00 | 36 | 997.4 |
| 20260504183516 | 23 | 248 | 22.5 | 41.8 | 0.00 | 0.00 | 0.00 | 35 | 997.5 |
| 20260504182516 | 23 | 270 | 27.4 | 51.5 | 0.00 | 0.00 | 0.00 | 36 | 997.3 |
| 20260504181516 | 23 | 270 | 25.7 | 45.1 | 0.00 | 0.00 | 0.00 | 36 | 997.4 |
| 20260504180516 | 23 | 248 | 27.4 | 51.5 | 0.00 | 0.00 | 0.00 | 36 | 997.2 |
| 20260504175556 | 23 | 248 | 20.9 | 40.2 | 0.00 | 0.00 | 0.00 | 35 | 997.2 |
| 20260504174536 | 23 | 270 | 17.7 | 37.0 | 0.00 | 0.00 | 0.00 | 35 | 997.3 |
| 20260504173516 | 23 | 248 | 22.5 | 40.2 | 0.00 | 0.00 | 0.00 | 34 | 997.3 |
| 20260504172516 | 23 | 248 | 20.9 | 41.8 | 0.00 | 0.00 | 0.00 | 36 | 997.6 |
| 20260504171516 | 23 | 248 | 16.1 | 33.8 | 0.00 | 0.00 | 0.00 | 35 | 997.7 |
| 20260504170516 | 23 | 225 | 17.7 | 38.6 | 0.00 | 0.00 | 0.00 | 37 | 997.7 |
| 20260504150516 | 20 | 225 | 20.9 | 48.3 | 0.00 | 0.00 | 0.00 | 42 | 998.5 |
| 20260504140556 | 17 | 225 | 12.9 | 25.7 | 0.00 | 0.00 | 0.00 | 46 | 999.2 |
| 20260504130516 | 13 | 225 | 8.0 | 17.7 | 0.00 | 0.00 | 0.00 | 55 | 999.8 |
| 20260504110536 | 10 | 225 | 4.8 | 12.9 | 0.00 | 0.00 | 0.00 | 60 | 1000.5 |
| 20260504100515 | 10 | 225 | 8.0 | 19.3 | 0.00 | 0.00 | 0.00 | 60 | 1001.3 |
| 20260504081515 | 10 | 225 | 3.2 | 6.4 | 0.00 | 0.00 | 0.00 | 60 | 1002.3 |
| 20260504080517 | 10 | 225 | 3.2 | 9.7 | 0.00 | 0.00 | 0.00 | 60 | 1002.4 |
| 20260504050517 | 12 | 248 | 3.2 | 6.4 | 0.00 | 0.00 | 0.00 | 51 | 1004.6 |
| 20260504045516 | 12 | 248 | 4.8 | 6.4 | 0.00 | 0.00 | 0.00 | 51 | 1004.6 |
| 20260504044515 | 12 | 225 | 3.2 | 4.8 | 0.00 | 0.00 | 0.00 | 50 | 1004.7 |
| 20260504043516 | 13 | 248 | 4.8 | 6.4 | 0.00 | 0.00 | 0.00 | 49 | 1004.7 |
| 20260504042516 | 13 | 248 | 3.2 | 4.8 | 0.00 | 0.00 | 0.00 | 48 | 1004.7 |
| 20260504041536 | 14 | 248 | 4.8 | 8.0 | 0.00 | 0.00 | 0.00 | 46 | 1005.0 |
| 20260504040516 | 14 | 248 | 4.8 | 11.3 | 0.00 | 0.00 | 0.00 | 46 | 1005.1 |
| 20260504035515 | 15 | 248 | 3.2 | 4.8 | 0.00 | 0.00 | 0.00 | 45 | 1005.2 |
| 20260504034516 | 15 | 270 | 3.2 | 6.4 | 0.00 | 0.00 | 0.00 | 45 | 1005.4 |
| 20260504033515 | 14 | 270 | 3.2 | 4.8 | 0.00 | 0.00 | 0.00 | 46 | 1005.3 |
| 20260504032515 | 14 | 270 | 3.2 | 4.8 | 0.00 | 0.00 | 0.00 | 46 | 1005.4 |